2014 MH55

Japanese version
Home page
Updated on September 13, 2014

---------------------------------------------------------------------

* Profile

Discovery Date June 29, 2014
Magnitude 20.9 mag
Discoverer Pan-STARRS 1 telescope (Haleakala)

* Orbital Elements

Epoch 2014 May 23.0 TT = JDT 2456800.5                  MPC
M 359.89290              (2000.0)            P               Q
n   0.00681841     Peri.  188.82316     -0.37782135     +0.03424268
a  27.5431618      Node    67.75284     -0.77675454     +0.53213213
e   0.8384929      Incl.   91.49297     -0.50388830     -0.84596858
P 144.55           H   13.7           G   0.15           U   6

* Magnitudes Graph

        H = 13.7  G = 0.15

---------------------------------------------------------------------

The orbital elements are published on M.P.E.C. 2014-N26.
The magnitudes graphs are made with Comet for Windows.

---------------------------------------------------------------------

Copyright(C) Seiichi Yoshida (comet@aerith.net). All rights reserved.